sat.trackr.live / text

‹ back to catalog

COSMOS 2559 (707K)

NORAD 54031 · 2022-130A

PAYLOAD ACTIVE UNKNOWN

§ Identity

Operator
Country
CIS
Launch date
2022-10-10
Launch site
PLMSC
Launch vehicle
Mass (kg)
RCS (m²)

Purposes: nav

External: N2YO · Heavens-Above · Gunter

§ Orbital elements

Epoch: 2026-09-19T17:15:50.112000Z

Period
675.73 min
Inclination
64.2103°
Eccentricity
0.0013471
Mean motion
2.13101815 rev/d
Perigee alt
19,095.5 km
Apogee alt
19,164.3 km
Semi-major
25,508.0 km
B*
0.0000e+0
RAAN
311.2302°
Arg perigee
188.9341°
Mean anomaly
171.1129°
Rev number
3,070

§ Raw data

COSMOS 2559 (707K)1 54031U 22130A   26262.71933000 -.00000030  00000+0  00000+0 0  99942 54031  64.2103 311.2302 0013471 188.9341 171.1129  2.13101815 30707

JSON: /api/v1/satellites/54031 · /tle

For live sub-satellite position, see the globe view (requires WebGL).

§ Visibility from observer

Set your observer location to see the next 7 days of passes ≥ 10°. The values pass through the URL so the page stays shareable.

No JS? Fill the form by hand. The geolocation button needs JavaScript.